Radiation Dose at Monitoring Post of Fukushima Daini Nuclear Power Station
Date,Time,MP-1(microSv/h),MP-2(microSv/h),MP-3(microSv/h),MP-4(microSv/h),MP-5(microSv/h),MP-6(microSv/h),MP-7(microSv/h),Wind Direction,Wind Velocity(m/s),Rain
2018/05/05,00:00,0.307,0.192,0.313,0.301,0.296,0.158,0.095,south-southeast,3.0,No
2018/05/05,00:10,0.309,0.193,0.314,0.299,0.296,0.158,0.096,south,3.0,No
2018/05/05,00:20,0.309,0.193,0.313,0.300,0.296,0.158,0.095,south,2.5,No
2018/05/05,00:30,0.306,0.193,0.313,0.301,0.296,0.157,0.096,south-southeast,0.6,No
2018/05/05,00:40,0.308,0.193,0.314,0.298,0.296,0.158,0.095,south-southwest,1.3,No
2018/05/05,00:50,0.309,0.194,0.312,0.299,0.295,0.158,0.096,south-southwest,3.9,No
2018/05/05,01:00,0.308,0.193,0.313,0.301,0.296,0.157,0.095,south-southwest,5.3,No
2018/05/05,01:10,0.308,0.193,0.313,0.299,0.296,0.158,0.096,south-southwest,6.4,No
2018/05/05,01:20,0.307,0.194,0.314,0.299,0.296,0.157,0.096,south-southwest,7.8,No
2018/05/05,01:30,0.308,0.193,0.313,0.300,0.295,0.157,0.096,south,7.7,No
2018/05/05,01:40,0.309,0.193,0.313,0.299,0.296,0.157,0.095,south-southwest,7.2,No
2018/05/05,01:50,0.309,0.193,0.314,0.299,0.296,0.158,0.095,south-southwest,8.5,No
2018/05/05,02:00,0.309,0.193,0.313,0.299,0.296,0.157,0.096,southwest,9.5,No
2018/05/05,02:10,0.309,0.194,0.312,0.301,0.297,0.156,0.096,south-southwest,8.1,No
2018/05/05,02:20,0.309,0.193,0.314,0.300,0.296,0.157,0.095,south-southwest,8.2,No
2018/05/05,02:30,0.306,0.194,0.313,0.300,0.296,0.157,0.095,south-southwest,8.1,No
2018/05/05,02:40,0.308,0.193,0.314,0.300,0.295,0.157,0.095,south-southwest,8.4,No
2018/05/05,02:50,0.308,0.194,0.313,0.299,0.295,0.158,0.096,south-southwest,8.6,No
2018/05/05,03:00,0.308,0.193,0.313,0.299,0.295,0.156,0.095,southwest,7.9,No
2018/05/05,03:10,0.307,0.193,0.311,0.299,0.295,0.157,0.095,southwest,7.3,No
2018/05/05,03:20,0.308,0.192,0.313,0.300,0.296,0.157,0.096,southwest,8.3,No
2018/05/05,03:30,0.308,0.193,0.314,0.299,0.296,0.158,0.095,south-southwest,8.5,No
2018/05/05,03:40,0.307,0.193,0.312,0.299,0.295,0.157,0.095,south-southwest,9.2,No
2018/05/05,03:50,0.309,0.193,0.313,0.300,0.296,0.157,0.095,south-southwest,8.5,No
2018/05/05,04:00,0.308,0.193,0.313,0.299,0.296,0.156,0.095,south-southwest,8.5,No
2018/05/05,04:10,0.307,0.193,0.313,0.298,0.295,0.157,0.095,south-southwest,7.8,No
2018/05/05,04:20,0.308,0.192,0.313,0.300,0.296,0.157,0.096,southwest,6.2,No
2018/05/05,04:30,0.308,0.193,0.313,0.299,0.297,0.157,0.095,southwest,5.5,No
2018/05/05,04:40,0.307,0.193,0.312,0.300,0.294,0.158,0.095,southwest,5.6,No
2018/05/05,04:50,0.307,0.192,0.314,0.300,0.297,0.157,0.095,southwest,6.3,No
2018/05/05,05:00,0.309,0.192,0.313,0.297,0.296,0.157,0.095,southwest,6.1,No
2018/05/05,05:10,0.308,0.193,0.313,0.300,0.296,0.157,0.095,southwest,5.6,No
2018/05/05,05:20,0.308,0.193,0.313,0.301,0.296,0.157,0.096,southwest,6.6,No
2018/05/05,05:30,0.308,0.193,0.313,0.298,0.295,0.157,0.095,west-southwest,4.3,No
2018/05/05,05:40,0.309,0.194,0.313,0.299,0.296,0.156,0.095,west-southwest,3.5,No
2018/05/05,05:50,0.309,0.193,0.313,0.300,0.295,0.157,0.095,west,3.2,No
2018/05/05,06:00,0.308,0.193,0.312,0.299,0.296,0.157,0.095,west,1.6,No
2018/05/05,06:10,0.308,0.193,0.313,0.300,0.295,0.157,0.095,southwest,2.1,No
2018/05/05,06:20,0.308,0.192,0.313,0.300,0.296,0.157,0.096,southwest,2.6,No
2018/05/05,06:30,0.308,0.193,0.313,0.300,0.297,0.158,0.095,southwest,3.4,No
2018/05/05,06:40,0.309,0.193,0.314,0.300,0.296,0.156,0.095,southwest,3.5,No
2018/05/05,06:50,0.309,0.193,0.313,0.299,0.298,0.159,0.095,southwest,2.9,No
2018/05/05,07:00,0.308,0.194,0.312,0.299,0.295,0.158,0.095,southwest,2.2,No
2018/05/05,07:10,0.308,0.192,0.311,0.299,0.295,0.158,0.096,southwest,2.2,No
2018/05/05,07:20,0.308,0.192,0.315,0.299,0.296,0.156,0.094,south-southeast,1.3,No
2018/05/05,07:30,0.308,0.193,0.310,0.299,0.294,0.157,0.095,south-southeast,2.2,No
2018/05/05,07:40,0.306,0.193,0.311,0.300,0.297,0.157,0.095,south-southeast,2.6,No
2018/05/05,07:50,0.309,0.192,0.312,0.298,0.295,0.156,0.096,southeast,2.2,No
2018/05/05,08:00,0.307,0.194,0.313,0.300,0.297,0.156,0.095,east-southeast,1.9,No
2018/05/05,08:10,0.308,0.192,0.312,0.298,0.293,0.157,0.095,south-southeast,3.4,No
2018/05/05,08:20,0.309,0.194,0.314,0.298,0.296,0.157,0.095,south,4.6,No
2018/05/05,08:30,0.305,0.192,0.313,0.299,0.296,0.158,0.095,south,5.6,No
2018/05/05,08:40,0.309,0.192,0.313,0.297,0.293,0.157,0.095,south,7.5,No
2018/05/05,08:50,0.308,0.193,0.312,0.300,0.297,0.157,0.094,south,6.7,No
2018/05/05,09:00,0.305,0.194,0.314,0.301,0.294,0.157,0.094,south,7.6,No
2018/05/05,09:10,0.310,0.192,0.313,0.297,0.296,0.157,0.096,south,7.4,No
2018/05/05,09:20,0.308,0.193,0.314,0.299,0.295,0.157,0.095,south,6.1,No
2018/05/05,09:30,0.305,0.193,0.312,0.301,0.294,0.156,0.094,south,6.6,No
2018/05/05,09:40,0.309,0.192,0.315,0.297,0.298,0.156,0.095,south,6.7,No
2018/05/05,09:50,0.309,0.194,0.310,0.299,0.296,0.157,0.095,south,5.7,No
2018/05/05,10:00,0.307,0.193,0.315,0.300,0.295,0.157,0.095,south,6.8,No
2018/05/05,10:10,0.310,0.193,0.310,0.297,0.297,0.157,0.095,south,7.7,No
2018/05/05,10:20,0.310,0.194,0.314,0.299,0.294,0.157,0.095,south,6.3,No
2018/05/05,10:30,0.308,0.192,0.313,0.303,0.299,0.158,0.095,south-southeast,5.7,No
2018/05/05,10:40,0.310,0.193,0.313,0.298,0.294,0.158,0.095,south,5.5,No
2018/05/05,10:50,0.307,0.193,0.315,0.301,0.296,0.157,0.096,south,4.4,No
2018/05/05,11:00,0.309,0.195,0.312,0.301,0.298,0.158,0.096,west-northwest,7.9,No
2018/05/05,11:10,0.310,0.194,0.314,0.297,0.296,0.159,0.096,west-northwest,8.1,No
2018/05/05,11:20,0.307,0.191,0.314,0.297,0.293,0.157,0.095,west,6.6,No
2018/05/05,11:30,0.307,0.195,0.313,0.299,0.296,0.157,0.095,northwest,4.6,No
2018/05/05,11:40,0.311,0.193,0.310,0.301,0.296,0.158,0.096,northwest,6.7,No
2018/05/05,11:50,0.308,0.192,0.312,0.301,0.296,0.157,0.095,northwest,8.6,No
2018/05/05,12:00,0.306,0.193,0.315,0.299,0.295,0.157,0.094,west-northwest,5.6,No
2018/05/05,12:10,0.309,0.194,0.314,0.299,0.297,0.157,0.095,west-northwest,7.0,No
2018/05/05,12:20,0.310,0.194,0.311,0.298,0.299,0.158,0.095,west-northwest,5.3,No
2018/05/05,12:30,0.309,0.193,0.313,0.299,0.296,0.159,0.095,west,5.1,No
2018/05/05,12:40,0.310,0.195,0.316,0.297,0.295,0.158,0.095,west,6.1,No
2018/05/05,12:50,0.310,0.194,0.315,0.301,0.298,0.158,0.096,west-northwest,6.4,No
2018/05/05,13:00,0.309,0.193,0.312,0.302,0.298,0.159,0.096,west,5.6,No
2018/05/05,13:10,0.312,0.194,0.313,0.300,0.297,0.159,0.096,west-northwest,4.8,No
2018/05/05,13:20,0.312,0.194,0.317,0.299,0.294,0.158,0.094,west-northwest,3.7,No
2018/05/05,13:30,0.309,0.192,0.315,0.299,0.298,0.158,0.096,west-northwest,1.4,No
2018/05/05,13:40,0.309,0.193,0.312,0.304,0.300,0.159,0.096,west-southwest,1.7,No
2018/05/05,13:50,0.313,0.195,0.310,0.304,0.299,0.158,0.095,south,1.0,No
2018/05/05,14:00,0.311,0.196,0.317,0.300,0.296,0.158,0.096,south,1.8,No
2018/05/05,14:10,0.307,0.192,0.316,0.301,0.300,0.158,0.097,south-southeast,3.3,No
2018/05/05,14:20,0.311,0.196,0.313,0.305,0.300,0.159,0.095,south,6.2,No
2018/05/05,14:30,0.311,0.195,0.316,0.301,0.298,0.158,0.096,south,8.1,No
2018/05/05,14:40,0.310,0.193,0.317,0.299,0.295,0.158,0.096,south,8.2,No
2018/05/05,14:50,0.307,0.193,0.314,0.301,0.296,0.159,0.096,south,7.8,No
2018/05/05,15:00,0.312,0.196,0.312,0.304,0.299,0.159,0.096,south,7.3,No
2018/05/05,15:10,0.313,0.194,0.316,0.301,0.299,0.158,0.096,south,7.3,No
2018/05/05,15:20,0.310,0.195,0.317,0.304,0.296,0.159,0.096,south,7.9,No
2018/05/05,15:30,0.308,0.195,0.313,0.304,0.296,0.158,0.096,south,8.6,No
2018/05/05,15:40,0.313,0.193,0.314,0.301,0.300,0.158,0.097,south,9.6,No
2018/05/05,15:50,0.313,0.195,0.318,0.306,0.299,0.159,0.096,south,10.0,No
2018/05/05,16:00,0.309,0.196,0.315,0.303,0.296,0.158,0.096,south,10.3,No
2018/05/05,16:10,0.307,0.195,0.318,0.304,0.296,0.159,0.096,south,10.3,No
2018/05/05,16:20,0.313,0.197,0.316,0.302,0.299,0.157,0.097,south,10.6,No
2018/05/05,16:30,0.312,0.195,0.316,0.303,0.298,0.159,0.097,south,10.1,No
2018/05/05,16:40,0.310,0.196,0.317,0.302,0.296,0.160,0.096,south,10.9,No
2018/05/05,16:50,0.312,0.195,0.317,0.303,0.299,0.158,0.096,south,10.6,No
2018/05/05,17:00,0.312,0.195,0.317,0.304,0.299,0.160,0.096,south,9.8,No
2018/05/05,17:10,0.310,0.195,0.316,0.302,0.296,0.158,0.096,south-southwest,8.6,No
2018/05/05,17:20,0.313,0.196,0.317,0.304,0.301,0.160,0.097,south-southwest,8.2,No
2018/05/05,17:30,0.311,0.194,0.316,0.302,0.298,0.158,0.096,south-southwest,6.9,No
2018/05/05,17:40,0.310,0.196,0.318,0.304,0.298,0.159,0.096,south-southwest,6.5,No
2018/05/05,17:50,0.313,0.195,0.316,0.302,0.301,0.159,0.096,south-southwest,7.4,No
2018/05/05,18:00,0.311,0.195,0.317,0.304,0.298,0.160,0.096,south-southwest,8.2,No
2018/05/05,18:10,0.312,0.195,0.317,0.303,0.301,0.159,0.096,south-southwest,7.2,No
2018/05/05,18:20,0.310,0.195,0.317,0.306,0.297,0.159,0.097,southwest,7.7,No
2018/05/05,18:30,0.313,0.195,0.315,0.303,0.301,0.159,0.095,southwest,6.5,No
2018/05/05,18:40,0.313,0.195,0.317,0.303,0.298,0.159,0.096,southwest,5.7,No
2018/05/05,18:50,0.312,0.196,0.317,0.302,0.301,0.159,0.096,east-southeast,2.4,No
2018/05/05,19:00,0.312,0.195,0.318,0.304,0.299,0.159,0.096,south-southwest,1.9,No
2018/05/05,19:10,0.314,0.195,0.316,0.303,0.301,0.158,0.097,south-southwest,2.0,No
2018/05/05,19:20,0.311,0.195,0.318,0.304,0.298,0.159,0.097,-,CALM,No
2018/05/05,19:30,0.313,0.196,0.317,0.305,0.300,0.159,0.097,south-southwest,2.3,No
2018/05/05,19:40,0.311,0.196,0.316,0.304,0.299,0.160,0.097,south-southwest,1.9,No
2018/05/05,19:50,0.312,0.195,0.318,0.304,0.300,0.159,0.095,south-southwest,2.7,No
2018/05/05,20:00,0.312,0.196,0.316,0.303,0.300,0.159,0.096,south-southwest,2.0,No
2018/05/05,20:10,0.314,0.196,0.318,0.305,0.299,0.159,0.096,southwest,2.0,No
2018/05/05,20:20,0.312,0.195,0.317,0.304,0.301,0.158,0.096,west-southwest,0.9,No
2018/05/05,20:30,0.312,0.196,0.317,0.305,0.298,0.159,0.096,southwest,1.6,No
2018/05/05,20:40,0.312,0.196,0.319,0.303,0.301,0.159,0.096,southwest,3.0,No
2018/05/05,20:50,0.312,0.196,0.316,0.303,0.299,0.159,0.098,west-southwest,5.7,No
2018/05/05,21:00,0.315,0.196,0.319,0.305,0.299,0.160,0.096,west-southwest,5.6,No
2018/05/05,21:10,0.313,0.195,0.317,0.302,0.299,0.159,0.097,west-southwest,5.8,No
2018/05/05,21:20,0.312,0.197,0.316,0.303,0.299,0.159,0.096,west-southwest,8.1,No
2018/05/05,21:30,0.312,0.195,0.318,0.304,0.300,0.158,0.096,west-southwest,6.2,No
2018/05/05,21:40,0.311,0.196,0.316,0.304,0.297,0.159,0.097,west-southwest,5.9,No
2018/05/05,21:50,0.313,0.195,0.318,0.303,0.299,0.160,0.096,west-southwest,4.7,No
2018/05/05,22:00,0.312,0.195,0.316,0.302,0.297,0.160,0.097,west-southwest,5.9,No
2018/05/05,22:10,0.313,0.195,0.317,0.305,0.302,0.160,0.096,west,6.0,No
2018/05/05,22:20,0.311,0.195,0.315,0.302,0.297,0.160,0.096,west,2.5,No
2018/05/05,22:30,0.313,0.195,0.318,0.305,0.301,0.159,0.097,south-southwest,2.2,No
2018/05/05,22:40,0.314,0.196,0.317,0.302,0.299,0.159,0.096,south,1.5,No
2018/05/05,22:50,0.312,0.194,0.317,0.304,0.301,0.160,0.097,south,3.3,No
2018/05/05,23:00,0.314,0.195,0.317,0.303,0.298,0.160,0.097,south,4.0,No
2018/05/05,23:10,0.311,0.194,0.317,0.305,0.299,0.158,0.096,south,3.4,No
2018/05/05,23:20,0.315,0.196,0.318,0.304,0.300,0.159,0.096,south,3.2,No
2018/05/05,23:30,0.313,0.195,0.316,0.304,0.300,0.160,0.097,south,3.5,No
2018/05/05,23:40,0.312,0.196,0.318,0.305,0.300,0.161,0.096,south,3.8,No
2018/05/05,23:50,0.313,0.196,0.318,0.304,0.297,0.159,0.096,south,3.7,No
